Weather History for Mobile, AL

Change the Weather History Date:

Sunday, September 15, 2013

  Actual Average Record
Temperature  
Mean Temperature 80 °F 78 °F  
Max Temperature 92 °F 87 °F 97 °F (1972)
Min Temperature 68 °F 69 °F 54 °F (1985)
Degree Days  
Heating Degree Days 0 0  
Month to date heating degree days 0 0  
Since 1 July heating degree days 0 0  
Cooling Degree Days 15 13  
Month to date cooling degree days 251 216  
Year to date cooling degree days 2081 2143  
Growing Degree Days 30 (Base 50)    
Moisture  
Dew Point 65 °F    
Average Humidity 63    
Maximum Humidity 88    
Minimum Humidity 38    
Precipitation  
Precipitation 0.01 in 0.18 in 3.88 in (1913)
Month to date precipitation 2.91 2.63  
Year to date precipitation 54.61 49.79  
Sea Level Pressure  
Sea Level Pressure 30.03 in    
Wind  
Wind Speed 4 mph (ENE)    
Max Wind Speed 9 mph    
Max Gust Speed 15 mph    
Visibility 10 miles    
Events      
T = Trace of Precipitation, MM = Missing Value Source: NWS Daily Summary

Daily Weather History Graph

Daily Weather History Graph

Search for Another Location

Airport:

Trip Planner

Search our weather history database for the weather conditions in past years. The results will help you decide how hot, cold, wet, or windy it might be!

Date:

Astronomy

Sep. 15, 2013 Rise Set
Actual Time 6:37 AM CDT 6:58 PM CDT
Civil Twilight 6:13 AM CDT 7:22 PM CDT
Nautical Twilight 5:45 AM CDT 7:50 PM CDT
Astronomical Twilight 5:16 AM CDT 8:19 PM CDT
Moon 4:13 PM CDT (9/15) 2:29 AM CDT (9/15)
Length of Visible Light 13h 08m
Length of Day
12h 20m
Waxing Gibbous, 82% of the Moon is Illuminated
Sep 15
Waxing Gibbous
Sep 19
Full
Sep 26
Last Quarter
Oct 4
New
Oct 11
First Quarter

Hourly Weather History & Observations

Time (CDT) Temp. Heat Index Dew Point Humidity Pressure Visibility Wind Dir Wind Speed Gust Speed Precip Events Conditions
12:56 AM 72.0 °F - 64.0 °F 76% 30.01 in 10.0 mi NE 5.8 mph - N/A   Clear
1:56 AM 71.1 °F - 62.1 °F 73% 30.00 in 10.0 mi ENE 4.6 mph - N/A   Clear
2:56 AM 70.0 °F - 62.1 °F 76% 29.99 in 10.0 mi NNE 3.5 mph - N/A   Clear
3:56 AM 69.1 °F - 60.1 °F 73% 30.00 in 10.0 mi NNE 4.6 mph - N/A   Clear
4:56 AM 69.1 °F - 57.9 °F 68% 30.00 in 10.0 mi NNE 4.6 mph - N/A   Clear
5:56 AM 69.1 °F - 57.9 °F 68% 30.01 in 10.0 mi NE 5.8 mph - N/A   Partly Cloudy
6:56 AM 68.0 °F - 57.9 °F 70% 30.03 in 10.0 mi NE 3.5 mph - N/A   Partly Cloudy
7:56 AM 72.0 °F - 59.0 °F 64% 30.04 in 10.0 mi NE 4.6 mph - N/A   Clear
8:56 AM 77.0 °F - 61.0 °F 58% 30.05 in 10.0 mi East 6.9 mph - N/A   Clear
9:56 AM 81.0 °F 82.2 °F 63.0 °F 54% 30.07 in 10.0 mi ENE 5.8 mph - N/A   Clear
10:56 AM 86.0 °F 87.6 °F 64.9 °F 49% 30.07 in 10.0 mi ENE 4.6 mph - N/A   Clear
11:56 AM 88.0 °F 91.4 °F 68.0 °F 51% 30.07 in 10.0 mi East 6.9 mph - N/A   Partly Cloudy
12:56 PM 89.1 °F 92.1 °F 66.9 °F 48% 30.05 in 10.0 mi Variable 4.6 mph - N/A   Scattered Clouds
1:56 PM 90.0 °F 92.8 °F 66.9 °F 46% 30.04 in 10.0 mi Variable 3.5 mph - N/A   Scattered Clouds
2:56 PM 90.0 °F 92.4 °F 66.0 °F 45% 30.03 in 10.0 mi Calm Calm - N/A   Partly Cloudy
3:56 PM 91.9 °F 92.9 °F 63.0 °F 38% 30.01 in 10.0 mi Calm Calm - N/A   Partly Cloudy
4:56 PM 91.0 °F 92.6 °F 64.0 °F 41% 30.01 in 10.0 mi South 5.8 mph - N/A   Partly Cloudy
5:56 PM 89.1 °F 92.1 °F 66.9 °F 48% 30.01 in 10.0 mi Calm Calm - N/A   Partly Cloudy
6:56 PM 84.0 °F 89.0 °F 71.1 °F 65% 30.02 in 10.0 mi SSE 6.9 mph - N/A   Partly Cloudy
7:56 PM 81.0 °F 85.8 °F 73.0 °F 77% 30.04 in 10.0 mi SSW 4.6 mph - N/A   Partly Cloudy
8:56 PM 79.0 °F - 73.0 °F 82% 30.06 in 10.0 mi Calm Calm - N/A   Partly Cloudy
9:56 PM 77.0 °F - 73.0 °F 88% 30.07 in 10.0 mi Calm Calm - N/A   Partly Cloudy
10:56 PM 75.0 °F - 72.0 °F 90% 30.07 in 9.0 mi North 3.5 mph - N/A   Partly Cloudy
11:56 PM 75.0 °F - 72.0 °F 90% 30.07 in 9.0 mi Calm Calm - N/A   Clear